Location: Hains Lake
(37.8540°N, 99.8578°W)
Time: 14:59:14
(UTC+00:00)

A-11 Canister half - Visible Passes

Search period start: 23 April 2021 00:00
Search period end: 03 May 2021 00:00
Orbit: 1515 x 1685 km, 47.2° (Epoch: 23 April)

Date Brightness Start Highest point End Pass type
(mag) Time Alt. Az. Time Alt. Az. Time Alt. Az.
23 Apr 9.1 03:15:10 10° WSW 03:24:30 76° NNW 03:34:11 10° ENE visible
23 Apr 9.7 05:21:28 10° WNW 05:30:35 49° N 05:40:04 10° ENE visible
23 Apr 9.3 07:27:23 10° WNW 07:37:00 63° NNE 07:46:57 10° ESE visible
23 Apr 9.0 09:32:33 10° WNW 09:42:09 60° SW 09:52:01 10° SE visible
24 Apr 9.1 02:52:14 10° WSW 03:01:33 79° NNW 03:11:13 10° ENE visible
24 Apr 9.7 04:58:28 10° WNW 05:07:35 49° N 05:17:01 10° ENE visible
24 Apr 9.4 07:04:27 10° WNW 07:14:01 61° NNE 07:23:53 10° E visible
24 Apr 9.0 09:09:36 10° WNW 09:19:14 63° SW 09:29:09 10° SE visible
24 Apr 10.2 11:17:07 10° W 11:22:55 17° WSW 11:28:48 10° SSW visible
25 Apr 9.1 02:29:18 10° WSW 02:38:37 82° NNW 02:48:16 10° ENE visible
25 Apr 9.7 04:35:28 10° W 04:44:34 50° N 04:53:59 10° ENE visible
25 Apr 9.4 06:41:31 10° WNW 06:51:01 59° NNE 07:00:50 10° E visible
25 Apr 8.9 08:46:39 10° WNW 08:56:19 67° SW 09:06:16 10° SE visible
25 Apr 10.1 10:53:48 10° W 11:00:04 19° SW 11:06:26 10° SSW visible
26 Apr 9.1 02:06:23 10° WSW 02:15:41 85° NNW 02:25:18 10° ENE visible
26 Apr 9.7 04:12:28 10° W 04:21:33 50° N 04:30:57 10° ENE visible
26 Apr 9.4 06:18:35 10° WNW 06:28:01 58° NNE 06:37:47 10° E visible
26 Apr 8.9 08:23:44 10° WNW 08:33:24 70° SW 08:43:22 10° SE visible
26 Apr 10.0 10:30:33 10° W 10:37:13 21° SW 10:44:01 10° SSW visible
27 Apr 9.1 01:43:29 10° WSW 01:52:46 88° NNW 02:02:21 10° ENE visible
27 Apr 9.7 03:49:29 10° W 03:58:32 51° N 04:07:56 10° ENE visible
27 Apr 9.5 05:55:39 10° WNW 06:05:01 56° NNE 06:12:44 18° E visible
27 Apr 8.9 08:00:48 10° WNW 08:10:28 74° SW 08:20:28 10° SE visible
27 Apr 9.9 10:07:21 10° W 10:15:31 22° SW 10:21:33 10° S visible
28 Apr 9.7 03:26:29 10° W 03:35:32 51° N 03:44:54 10° ENE visible
28 Apr 9.5 05:32:42 10° WNW 05:42:01 55° NNE 05:48:27 23° E visible
28 Apr 8.9 07:37:52 10° WNW 07:59:18 - SE 07:46:30 71° W visible
28 Apr 10.5 09:44:12 10° WNW 09:57:46 13° S 09:59:01 10° S visible
29 Apr 9.7 03:03:29 10° W 03:12:33 52° NNW 03:21:54 10° ENE visible
29 Apr 9.5 05:09:45 10° WNW 05:19:01 54° NNE 05:25:25 23° E visible
29 Apr 9.0 07:14:56 10° WNW 07:23:31 73° W 07:23:31 73° W visible
29 Apr 10.7 09:21:04 10° WNW 09:38:48 - S 09:21:38 12° WNW visible
30 Apr 9.7 02:40:29 10° W 02:49:32 53° NNW 02:58:53 10° ENE visible
30 Apr 9.6 04:46:48 10° WNW 04:56:00 52° NNE 05:02:46 21° E visible
30 Apr 8.9 06:52:01 10° WNW 07:00:54 78° W 07:00:54 78° W visible
30 Apr 10.6 08:57:58 10° WNW 08:59:01 13° W 08:59:01 13° W visible
01 May 9.7 02:17:30 10° W 02:26:33 54° NNW 02:35:54 10° ENE visible
01 May 9.6 04:23:51 10° WNW 04:33:00 51° N 04:40:19 18° E visible
01 May 8.9 06:29:06 10° WNW 06:38:28 86° W 06:38:28 86° W visible
01 May 10.6 08:34:54 10° WNW 08:36:35 15° W 08:36:35 15° W visible
02 May 9.7 01:54:30 10° W 02:03:34 55° NNW 02:12:54 10° ENE visible
02 May 9.6 04:00:54 10° WNW 04:10:00 51° N 04:17:59 15° E visible
02 May 8.9 06:06:12 10° WNW 06:15:48 88° NNE 06:16:08 85° ESE visible
02 May 10.5 08:11:51 10° WNW 08:14:17 18° W 08:14:17 18° W visible
